Regional Weather Roundup
Issued by NWS

Home | Current Version | Previous Version | Graphics & Text | Print | Product List | Glossary On
Versions: 1 2 3 4 5 6 7 8 9 10 11 12 13 14 15 16 17 18 19 20 21 22 23 24 25 26 27 28 29 30 31 32 33 34 35 36 37 38 39 40 41 42 43 44 45 46 47 48 49 50
000
ASUS43 KFSD 300310
RWRSD

WEATHER ROUNDUP FOR SOUTH DAKOTA
NATIONAL WEATHER SERVICE SIOUX FALLS SD
1000 PM CDT SAT AUG 29 2015

NOTE: "FAIR" INDICATES FEW OR NO CLOUDS BELOW 12,000 FEET WITH NO
SIGNIFICANT WEATHER AND/OR OBSTRUCTIONS TO VISIBILITY.


SDZ001>005-009-010-012>017-300400-
NORTHWEST AND NORTH CENTRAL SOUTH DAKOTA

CITY           SKY/WX    TMP DP  RH WIND       PRES   REMARKS
BUFFALO          N/A     77  53  43 SE15      29.81S
FAITH            N/A     76  57  51 SE15      29.89S
MOBRIDGE       CLEAR     73  69  87 SE8       29.85R
$$

SDZ012>016-024>037-041>051-057-063-072>074-300400-
SOUTHWEST AND SOUTH CENTRAL SOUTH DAKOTA

CITY           SKY/WX    TMP DP  RH WIND       PRES   REMARKS
RAPID CTY ARPT PTCLDY    71  49  45 CALM      29.93R
PIERRE         CLEAR     76  64  66 SE9       29.87S
CUSTER         PTCLDY    74  37  26 S5        30.13R
ELLSWORTH AFB  PTCLDY    76  49  38 S5        29.93R
PHILIP         CLEAR     70  59  68 E7        29.88S
PINE RIDGE     PTCLDY    81  37  20 S12       29.98R
WINNER         FAIR      77  63  61 S14       29.95R
$$

SDZ004>011-016>023-039-040-300400-
NORTHEAST SOUTH DAKOTA

CITY           SKY/WX    TMP DP  RH WIND       PRES   REMARKS
ABERDEEN       CLEAR     72  68  87 S13       29.90R
WATERTOWN      CLEAR     66  63  90 S12       29.97R
BROOKINGS      CLEAR     64  61  88 SE9       30.01S
SISSETON         N/A     69  66  90 S7        29.91S
$$

SDZ017-020-022-023-036>040-048>070-300400-
SOUTHEAST SOUTH DAKOTA

CITY           SKY/WX    TMP DP  RH WIND       PRES   REMARKS
SIOUX FALLS    PTCLDY    66  63  90 S8        30.01S
HURON          CLEAR     70  66  87 SE13      29.93R
CHAMBERLAIN    CLEAR     69  65  89 SE6       29.94R
MITCHELL       CLEAR     69  67  93 S13       29.96R
YANKTON        CLEAR     66  64  94 SE7       30.00R
$$

ABBREVIATIONS USED IN REMARKS
   TC - TEMPERATURE IN CELSIUS
  WCI - WIND CHILL INDEX
   HX - HEAT INDEX
  VSB - VISIBILITY



USA.gov is the U.S. government's official web portal to all federal, state and local government web resources and services.